When you browse on this site, cookies collect data to enhance your experience and personalize the content and advertising you see.
Visit our Privacy Policy to learn more. By continuing to use the site, you agree to this use of cookies and data.
  • In Latvia
  • List of Countries
  • For 7 days
  • Water Temperature
  • Weather Map
  • Weather Widgets
  • user-avatar
    Login

    Hourly Weather Mokhotlong

    Today, 20 January, Monday

    Time Temperature Precipitation Wind Pressure Humidity
    00:00 +12°C° 0 mm 1 mps 585 mmHg 91%
    01:00 +11°C° 0 mm 1 mps 585 mmHg 92%
    02:00 +10°C° 0 mm 0 mps 585 mmHg 93%
    03:00 +10°C° 0 mm 0 mps 585 mmHg 93%
    04:00 +10°C° 0 mm 1 mps 585 mmHg 94%
    05:00 +10°C° 0 mm 1 mps 584 mmHg 94%
    06:00 +11°C° 0 mm 1 mps 585 mmHg 90%
    07:00 +13°C° 0 mm 1 mps 586 mmHg 86%
    08:00 +14°C° 0 mm 1 mps 587 mmHg 82%
    09:00 +16°C° 0 mm 1 mps 588 mmHg 76%
    10:00 +18°C° 0 mm 1 mps 588 mmHg 70%
    11:00 +20°C° 0 mm 1 mps 589 mmHg 64%
    12:00 +20°C° 0.3 mm 2 mps 589 mmHg 62%
    13:00 +21°C° 0.3 mm 2 mps 589 mmHg 60%
    14:00 +22°C° 0.3 mm 3 mps 588 mmHg 58%
    15:00 +21°C° 1.2 mm 3 mps 588 mmHg 62%
    16:00 +20°C° 1.2 mm 3 mps 587 mmHg 67%
    17:00 +19°C° 1.2 mm 3 mps 587 mmHg 71%
    18:00 +18°C° 0.6 mm 2 mps 587 mmHg 76%
    19:00 +18°C° 0.6 mm 1 mps 586 mmHg 81%
    20:00 +16°C° 0.6 mm 1 mps 586 mmHg 86%
    21:00 +15°C° 0 mm 1 mps 586 mmHg 85%
    22:00 +15°C° 0 mm 1 mps 586 mmHg 85%
    23:00 +14°C° 0 mm 1 mps 586 mmHg 85%

    Tomorrow, 21 January, Tuesday

    Time Temperature Precipitation Wind Pressure Humidity
    00:00 +14°C° 0 mm 1 mps 585 mmHg 85%
    01:00 +13°C° 0 mm 1 mps 585 mmHg 84%
    02:00 +13°C° 0 mm 1 mps 585 mmHg 83%
    03:00 +14°C° 0 mm 1 mps 585 mmHg 83%
    04:00 +14°C° 0 mm 1 mps 585 mmHg 83%
    05:00 +15°C° 0 mm 1 mps 585 mmHg 83%
    06:00 +16°C° 0.1 mm 1 mps 586 mmHg 76%
    07:00 +17°C° 0.1 mm 2 mps 586 mmHg 69%
    08:00 +19°C° 0.1 mm 2 mps 587 mmHg 63%
    09:00 +19°C° 0.6 mm 3 mps 587 mmHg 61%
    10:00 +20°C° 0.6 mm 4 mps 587 mmHg 59%
    11:00 +21°C° 0.6 mm 4 mps 587 mmHg 57%
    12:00 +22°C° 0.6 mm 5 mps 587 mmHg 52%
    13:00 +22°C° 0.6 mm 6 mps 587 mmHg 47%
    14:00 +23°C° 0.6 mm 6 mps 587 mmHg 43%
    15:00 +21°C° 0.9 mm 5 mps 586 mmHg 54%
    16:00 +18°C° 0.9 mm 4 mps 585 mmHg 65%
    17:00 +16°C° 0.9 mm 3 mps 584 mmHg 77%
    18:00 +16°C° 0.5 mm 3 mps 585 mmHg 79%
    19:00 +15°C° 0.5 mm 2 mps 585 mmHg 81%
    20:00 +15°C° 0.5 mm 1 mps 585 mmHg 84%
    21:00 +14°C° 0.2 mm 2 mps 585 mmHg 86%
    22:00 +14°C° 0.2 mm 2 mps 585 mmHg 88%
    23:00 +13°C° 0.2 mm 2 mps 584 mmHg 91%

    Day after tomorrow, 22 January, Wednesday

    Time Temperature Precipitation Wind Pressure Humidity
    00:00 +13°C° 0 mm 2 mps 584 mmHg 91%
    01:00 +12°C° 0 mm 1 mps 583 mmHg 91%
    02:00 +12°C° 0 mm 1 mps 582 mmHg 91%
    03:00 +12°C° 0 mm 1 mps 582 mmHg 91%
    04:00 +12°C° 0 mm 1 mps 582 mmHg 90%
    05:00 +11°C° 0 mm 1 mps 582 mmHg 89%
    06:00 +13°C° 0 mm 1 mps 583 mmHg 82%
    07:00 +16°C° 0 mm 2 mps 584 mmHg 74%
    08:00 +18°C° 0 mm 2 mps 585 mmHg 67%
    09:00 +19°C° 0 mm 4 mps 585 mmHg 59%
    10:00 +21°C° 0 mm 5 mps 586 mmHg 50%
    11:00 +22°C° 0 mm 7 mps 586 mmHg 41%
    12:00 +23°C° 0 mm 7 mps 586 mmHg 41%
    13:00 +23°C° 0 mm 8 mps 585 mmHg 40%
    14:00 +23°C° 0 mm 9 mps 585 mmHg 40%
    15:00 +23°C° 0.1 mm 8 mps 584 mmHg 40%
    16:00 +22°C° 0.1 mm 7 mps 584 mmHg 41%
    17:00 +22°C° 0.1 mm 7 mps 584 mmHg 41%
    18:00 +20°C° 0.2 mm 5 mps 583 mmHg 48%
    19:00 +17°C° 0.2 mm 4 mps 582 mmHg 54%
    20:00 +15°C° 0.2 mm 2 mps 581 mmHg 61%
    21:00 +15°C° 0.1 mm 2 mps 582 mmHg 67%
    22:00 +14°C° 0.1 mm 2 mps 582 mmHg 73%
    23:00 +14°C° 0.1 mm 2 mps 582 mmHg 79%

    23 January, Thursday

    Time Temperature Precipitation Wind Pressure Humidity
    00:00 +13°C° 0 mm 2 mps 582 mmHg 78%
    01:00 +13°C° 0 mm 1 mps 581 mmHg 76%
    02:00 +12°C° 0 mm 1 mps 581 mmHg 75%
    03:00 +12°C° 0 mm 1 mps 581 mmHg 76%
    04:00 +11°C° 0 mm 1 mps 581 mmHg 77%
    05:00 +11°C° 0 mm 1 mps 581 mmHg 77%
    06:00 +13°C° 0 mm 1 mps 582 mmHg 70%
    07:00 +15°C° 0 mm 1 mps 584 mmHg 63%
    08:00 +18°C° 0 mm 1 mps 585 mmHg 57%
    09:00 +19°C° 0 mm 2 mps 586 mmHg 50%
    10:00 +20°C° 0 mm 4 mps 586 mmHg 44%
    11:00 +22°C° 0 mm 6 mps 587 mmHg 38%
    12:00 +21°C° 0.3 mm 6 mps 586 mmHg 44%
    13:00 +21°C° 0.3 mm 7 mps 586 mmHg 51%
    14:00 +20°C° 0.3 mm 8 mps 585 mmHg 57%
    15:00 +19°C° 0.8 mm 6 mps 585 mmHg 62%
    16:00 +17°C° 0.8 mm 5 mps 584 mmHg 67%
    17:00 +16°C° 0.8 mm 3 mps 584 mmHg 73%
    18:00 +16°C° 0.3 mm 3 mps 584 mmHg 78%
    19:00 +15°C° 0.3 mm 2 mps 584 mmHg 84%
    20:00 +14°C° 0.3 mm 2 mps 584 mmHg 89%
    21:00 +14°C° 0.3 mm 2 mps 585 mmHg 90%
    22:00 +14°C° 0.3 mm 2 mps 585 mmHg 91%
    23:00 +14°C° 0.3 mm 2 mps 585 mmHg 92%

    24 January, Friday

    Time Temperature Precipitation Wind Pressure Humidity
    00:00 +13°C° 0.3 mm 2 mps 585 mmHg 92%
    01:00 +13°C° 0.3 mm 2 mps 584 mmHg 93%
    02:00 +12°C° 0.3 mm 1 mps 584 mmHg 94%
    03:00 +12°C° 0.1 mm 1 mps 584 mmHg 94%
    04:00 +12°C° 0.1 mm 2 mps 584 mmHg 93%
    05:00 +12°C° 0.1 mm 2 mps 583 mmHg 93%
    06:00 +13°C° 0.1 mm 2 mps 584 mmHg 87%
    07:00 +15°C° 0.1 mm 2 mps 585 mmHg 81%
    08:00 +16°C° 0.1 mm 2 mps 586 mmHg 75%
    09:00 +17°C° 0.6 mm 2 mps 586 mmHg 70%
    10:00 +19°C° 0.6 mm 2 mps 586 mmHg 65%
    11:00 +20°C° 0.6 mm 2 mps 586 mmHg 60%
    12:00 +19°C° 1.4 mm 2 mps 586 mmHg 65%
    13:00 +18°C° 1.4 mm 3 mps 585 mmHg 70%
    14:00 +17°C° 1.4 mm 3 mps 585 mmHg 75%
    15:00 +17°C° 1.7 mm 3 mps 585 mmHg 76%
    16:00 +16°C° 1.7 mm 2 mps 584 mmHg 77%
    17:00 +15°C° 1.7 mm 2 mps 584 mmHg 78%
    18:00 +15°C° 0.2 mm 1 mps 584 mmHg 81%
    19:00 +14°C° 0.2 mm 1 mps 584 mmHg 85%
    20:00 +14°C° 0.2 mm 1 mps 584 mmHg 88%
    21:00 +13°C° 0.9 mm 1 mps 584 mmHg 90%
    22:00 +13°C° 0.9 mm 1 mps 584 mmHg 92%
    23:00 +13°C° 0.9 mm 1 mps 584 mmHg 94%

    25 January, Saturday

    Time Temperature Precipitation Wind Pressure Humidity
    00:00 +13°C° 0.3 mm 1 mps 584 mmHg 94%
    01:00 +13°C° 0.3 mm 1 mps 584 mmHg 94%
    02:00 +13°C° 0.3 mm 1 mps 583 mmHg 94%
    03:00 +12°C° 0 mm 1 mps 583 mmHg 94%
    04:00 +12°C° 0 mm 1 mps 583 mmHg 94%
    05:00 +12°C° 0 mm 1 mps 582 mmHg 94%
    06:00 +13°C° 0 mm 2 mps 583 mmHg 88%
    07:00 +14°C° 0 mm 2 mps 584 mmHg 82%
    08:00 +15°C° 0 mm 2 mps 585 mmHg 76%
    09:00 +17°C° 0.2 mm 3 mps 585 mmHg 70%
    10:00 +18°C° 0.2 mm 4 mps 585 mmHg 63%
    11:00 +19°C° 0.2 mm 5 mps 585 mmHg 56%
    12:00 +20°C° 0.2 mm 6 mps 585 mmHg 55%
    13:00 +20°C° 0.2 mm 7 mps 585 mmHg 53%
    14:00 +20°C° 0.2 mm 7 mps 584 mmHg 51%
    15:00 +20°C° 0.2 mm 7 mps 584 mmHg 53%
    16:00 +18°C° 0.2 mm 7 mps 584 mmHg 56%
    17:00 +19°C° 0.2 mm 6 mps 584 mmHg 58%
    18:00 +16°C° 0.1 mm 5 mps 583 mmHg 66%
    19:00 +14°C° 0.1 mm 3 mps 583 mmHg 74%
    20:00 +13°C° 0.1 mm 1 mps 582 mmHg 81%
    21:00 +13°C° 0 mm 1 mps 583 mmHg 81%
    22:00 +13°C° 0 mm 2 mps 583 mmHg 80%
    23:00 +13°C° 0 mm 2 mps 583 mmHg 80%
    Show more